Location: Fernhill
(41.0167°S, 175.6333°E)
Time: 14:41:55
(UTC+00:00)

Meteor 2-6 Rocket - Pass Details

Date: 20 February 2026
Orbit: 804 x 913 km, 81.3° (Epoch: 7 March)

Event Time Altitude Azimuth Distance (km) Brightness Sun altitude
Exits shadow 08:59:44 23° 98° (E) 1,830 5.5 -18.9°
Drops below altitude 10° 09:03:57 10° 143° (SE) 2,602 6.7 -19.5°
Sets 09:06:57 0° 157° (SSE) 3,564 7.6 -20.0°
